QPF
0.06 0.03 0.02 0.02 0.02 0.01 0.01 0.00 0.01 0.01 0.01 0.01 0.01 0.01 0.02 0.02 0.01 0.01 0.00 0.00 0.00 0.01 0.02 0.02 0.02 0.03 0.03 0.03 0.03 0.03 0.02 0.02 0.01 0.01 0.01 0.02 0.02 0.02 0.02 0.03 0.03 0.03 0.03
0.08 0.04 0.02 0.02 0.02 0.01 0.01 0.00 0.00 0.01 0.01 0.01 0.01 0.01 0.01 0.01 0.01 0.01 0.00 0.00 0.00 0.00 0.01 0.01 0.02 0.02 0.03 0.04 0.04 0.04 0.03 0.03 0.03 0.02 0.02 0.01 0.02 0.02 0.02 0.03 0.03 0.03 0.03
0.10 0.07 0.03 0.02 0.02 0.01 0.01 0.01 0.01 0.01 0.01 0.01 0.01 0.01 0.01 0.01 0.01 0.01 0.00 0.00 0.00 0.00 0.00 0.01 0.01 0.01 0.02 0.03 0.03 0.04 0.05 0.05 0.05 0.04 0.03 0.03 0.02 0.02 0.02 0.02 0.03 0.03 0.03
0.09 0.07 0.05 0.04 0.03 0.02 0.01 0.01 0.01 0.01 0.01 0.01 0.01 0.01 0.01 0.01 0.01 0.01 0.01 0.00 0.00 0.00 0.00 0.00 0.00 0.01 0.01 0.02 0.02 0.03 0.03 0.04 0.04 0.04 0.03 0.03 0.04 0.04 0.03 0.02 0.02 0.03 0.03
0.07 0.06 0.05 0.05 0.04 0.03 0.01 0.01 0.01 0.01 0.01 0.02 0.01 0.01 0.01 0.01 0.01 0.01 0.01 0.00 0.00 0.00 0.00 0.00 0.00 0.00 0.01 0.01 0.01 0.02 0.02 0.02 0.02 0.02 0.02 0.02 0.02 0.04 0.04 0.03 0.03 0.02 0.03
0.08 0.07 0.05 0.04 0.04 0.04 0.02 0.01 0.01 0.01 0.01 0.01 0.02 0.02 0.01 0.01 0.01 0.01 0.01 0.00 0.00 0.00 0.00 0.00 0.00 0.00 0.00 0.00 0.01 0.01 0.02 0.02 0.02 0.02 0.01 0.01 0.01 0.02 0.02 0.03 0.03 0.03 0.04
0.05 0.06 0.05 0.04 0.04 0.04 0.03 0.02 0.01 0.01 0.01 0.01 0.02 0.02 0.02 0.01 0.01 0.01 0.01 0.01 0.00 0.00 0.00 0.00 0.00 0.00 0.00 0.00 0.00 0.01 0.01 0.01 0.02 0.02 0.01 0.01 0.01 0.01 0.01 0.02 0.01 0.02 0.02
0.05 0.05 0.07 0.06 0.05 0.05 0.03 0.02 0.01 0.01 0.01 0.01 0.01 0.02 0.02 0.02 0.01 0.01 0.01 0.01 0.01 0.00 0.00 0.00 0.00 0.00 0.00 0.00 0.00 0.00 0.00 0.01 0.01 0.01 0.01 0.01 0.02 0.02 0.02 0.01 0.01 0.01 0.02
0.04 0.05 0.05 0.07 0.07 0.08 0.07 0.04 0.02 0.02 0.02 0.02 0.02 0.02 0.02 0.01 0.01 0.01 0.01 0.01 0.01 0.01 0.01 0.00 0.00 0.00 0.00 0.00 0.00 0.00 0.00 0.00 0.00 0.01 0.01 0.01 0.02 0.02 0.02 0.02 0.02 0.02 0.02
0.04 0.04 0.04 0.04 0.06 0.07 0.08 0.06 0.03 0.02 0.03 0.04 0.04 0.04 0.03 0.02 0.01 0.01 0.01 0.01 0.02 0.02 0.01 0.01 0.00 0.00 0.00 0.00 0.00 0.00 0.00 0.00 0.00 0.00 0.01 0.01 0.02 0.02 0.02 0.02 0.02 0.02 0.02
0.02 0.03 0.03 0.02 0.03 0.04 0.04 0.04 0.04 0.03 0.02 0.03 0.03 0.03 0.03 0.02 0.02 0.02 0.02 0.02 0.02 0.02 0.02 0.01 0.01 0.00 0.00 0.00 0.00 0.00 0.00 0.00 0.00 0.00 0.01 0.01 0.01 0.01 0.01 0.01 0.02 0.02 0.02
0.01 0.01 0.02 0.01 0.01 0.02 0.02 0.02 0.02 0.02 0.02 0.02 0.02 0.02 0.02 0.01 0.01 0.02 0.02 0.02 0.02 0.02 0.02 0.02 0.01 0.00 0.00 0.00 0.00 0.00 0.00 0.00 0.00 0.00 0.01 0.01 0.01 0.01 0.01 0.01 0.01 0.01 0.02
0.02 0.01 0.01 0.01 0.01 0.01 0.01 0.02 0.01 0.01 0.01 0.01 0.01 0.01 0.01 0.01 0.01 0.01 0.01 0.01 0.01 0.01 0.01 0.01 0.01 0.01 0.00 0.00 0.00 0.00 0.00 0.00 0.00 0.00 0.01 0.01 0.01 0.01 0.01 0.01 0.01 0.01 0.01
0.02 0.01 0.01 0.01 0.01 0.01 0.01 0.01 0.02 0.01 0.01 0.01 0.01 0.00 0.00 0.00 0.00 0.00 0.01 0.01 0.01 0.01 0.01 0.01 0.01 0.01 0.01 0.00 0.00 0.00 0.00 0.00 0.00 0.00 0.00 0.00 0.00 0.00 0.00 0.00 0.01 0.01 0.01
0.02 0.02 0.01 0.01 0.01 0.01 0.01 0.02 0.03 0.03 0.02 0.01 0.01 0.01 0.00 0.00 0.00 0.00 0.00 0.01 0.01 0.01 0.01 0.01 0.01 0.01 0.01 0.01 0.01 0.00 0.00 0.00 0.00 0.00 0.00 0.00 0.00 0.00 0.00 0.00 0.01 0.01 0.01
0.02 0.02 0.03 0.02 0.01 0.01 0.01 0.02 0.03 0.04 0.04 0.04 0.03 0.02 0.01 0.01 0.01 0.01 0.01 0.01 0.01 0.01 0.01 0.01 0.01 0.02 0.02 0.01 0.01 0.01 0.00 0.00 0.00 0.00 0.00 0.00 0.00 0.00 0.00 0.01 0.01 0.01 0.01
0.01 0.02 0.04 0.04 0.03 0.02 0.02 0.02 0.02 0.03 0.04 0.05 0.05 0.04 0.02 0.01 0.01 0.01 0.01 0.01 0.01 0.01 0.01 0.01 0.01 0.01 0.01 0.01 0.01 0.01 0.00 0.00 0.00 0.00 0.00 0.00 0.00 0.00 0.00 0.00 0.01 0.01 0.01
0.01 0.01 0.03 0.04 0.04 0.03 0.02 0.03 0.03 0.03 0.03 0.04 0.05 0.05 0.04 0.02 0.02 0.01 0.01 0.01 0.01 0.01 0.01 0.01 0.01 0.01 0.01 0.01 0.01 0.01 0.01 0.00 0.00 0.00 0.00 0.00 0.00 0.00 0.00 0.00 0.00 0.01 0.00
0.01 0.01 0.01 0.02 0.03 0.04 0.04 0.03 0.03 0.03 0.04 0.04 0.04 0.04 0.04 0.04 0.04 0.03 0.02 0.02 0.02 0.01 0.01 0.01 0.01 0.01 0.01 0.01 0.01 0.01 0.01 0.01 0.01 0.01 0.00 0.00 0.00 0.00 0.00 0.00 0.00 0.00 0.00
0.01 0.01 0.01 0.01 0.02 0.03 0.04 0.04 0.03 0.03 0.03 0.04 0.04 0.05 0.05 0.04 0.04 0.04 0.04 0.03 0.02 0.02 0.02 0.01 0.01 0.01 0.01 0.01 0.01 0.02 0.02 0.01 0.01 0.01 0.00 0.00 0.00 0.00 0.00 0.00 0.00 0.01 0.01
0.00 0.00 0.01 0.01 0.01 0.02 0.02 0.03 0.03 0.03 0.03 0.03 0.03 0.04 0.04 0.05 0.05 0.04 0.04 0.04 0.03 0.03 0.03 0.02 0.02 0.01 0.01 0.01 0.01 0.02 0.02 0.02 0.02 0.01 0.01 0.00 0.00 0.00 0.00 0.00 0.01 0.01 0.01
0.00 0.00 0.01 0.01 0.02 0.02 0.02 0.02 0.03 0.03 0.03 0.03 0.03 0.03 0.03 0.04 0.04 0.05 0.05 0.04 0.04 0.03 0.03 0.03 0.03 0.02 0.02 0.02 0.02 0.02 0.02 0.02 0.02 0.02 0.01 0.01 0.00 0.00 0.00 0.00 0.01 0.01 0.01
0.00 0.00 0.00 0.01 0.01 0.02 0.02 0.02 0.02 0.02 0.02 0.03 0.03 0.03 0.03 0.03 0.03 0.03 0.04 0.04 0.04 0.03 0.03 0.03 0.03 0.02 0.02 0.02 0.02 0.02 0.02 0.02 0.02 0.02 0.02 0.02 0.01 0.01 0.01 0.01 0.01 0.01 0.01
0.00 0.00 0.00 0.00 0.00 0.01 0.01 0.02 0.02 0.02 0.02 0.02 0.02 0.02 0.03 0.03 0.02 0.02 0.02 0.02 0.02 0.02 0.02 0.02 0.02 0.02 0.02 0.02 0.02 0.02 0.02 0.02 0.02 0.02 0.02 0.02 0.02 0.02 0.02 0.02 0.02 0.02 0.01
0.00 0.00 0.00 0.00 0.00 0.00 0.00 0.00 0.01 0.02 0.02 0.02 0.01 0.01 0.01 0.02 0.02 0.02 0.02 0.02 0.02 0.02 0.02 0.01 0.01 0.01 0.01 0.02 0.02 0.02 0.02 0.02 0.02 0.01 0.02 0.02 0.02 0.02 0.02 0.02 0.02 0.02 0.02
0.00 0.00 0.00 0.00 0.00 0.00 0.00 0.00 0.00 0.00 0.01 0.01 0.01 0.01 0.01 0.01 0.01 0.01 0.01 0.01 0.01 0.01 0.01 0.01 0.01 0.01 0.01 0.01 0.01 0.01 0.01 0.02 0.02 0.02 0.02 0.02 0.02 0.02 0.03 0.02 0.02 0.02 0.02
MSLP
1020.63 1020.64 1020.63 1020.62 1020.60 1020.58 1020.55 1020.50 1020.43 1020.33 1020.20 1020.04 1019.88 1019.72 1019.58 1019.45 1019.35 1019.26 1019.17 1019.06 1018.92 1018.74 1018.54 1018.32 1018.09 1017.88 1017.68 1017.50 1017.33 1017.16 1016.98 1016.77 1016.53 1016.26 1015.95 1015.63 1015.30 1014.97 1014.65 1014.33 1014.03 1013.74 1013.47
1020.90 1020.89 1020.87 1020.85 1020.83 1020.82 1020.80 1020.76 1020.70 1020.60 1020.47 1020.31 1020.15 1019.99 1019.84 1019.72 1019.63 1019.54 1019.46 1019.36 1019.24 1019.08 1018.90 1018.70 1018.48 1018.27 1018.06 1017.85 1017.65 1017.44 1017.21 1016.96 1016.67 1016.37 1016.04 1015.70 1015.36 1015.02 1014.69 1014.37 1014.05 1013.75 1013.47
1021.16 1021.14 1021.11 1021.10 1021.09 1021.10 1021.09 1021.06 1021.00 1020.90 1020.77 1020.61 1020.45 1020.28 1020.13 1020.01 1019.91 1019.82 1019.73 1019.63 1019.52 1019.38 1019.21 1019.03 1018.84 1018.65 1018.45 1018.24 1018.02 1017.78 1017.51 1017.21 1016.88 1016.53 1016.16 1015.80 1015.44 1015.09 1014.76 1014.43 1014.12 1013.82 1013.52
1021.38 1021.36 1021.35 1021.36 1021.38 1021.40 1021.40 1021.38 1021.33 1021.22 1021.09 1020.93 1020.76 1020.59 1020.44 1020.30 1020.18 1020.08 1019.97 1019.86 1019.74 1019.61 1019.46 1019.31 1019.15 1018.98 1018.81 1018.62 1018.40 1018.14 1017.84 1017.50 1017.12 1016.72 1016.32 1015.92 1015.53 1015.17 1014.83 1014.50 1014.19 1013.89 1013.59
1021.54 1021.54 1021.57 1021.60 1021.65 1021.69 1021.71 1021.70 1021.64 1021.54 1021.41 1021.24 1021.08 1020.91 1020.75 1020.61 1020.48 1020.34 1020.22 1020.08 1019.93 1019.79 1019.65 1019.51 1019.38 1019.26 1019.12 1018.96 1018.75 1018.49 1018.18 1017.81 1017.39 1016.94 1016.48 1016.04 1015.62 1015.23 1014.88 1014.55 1014.24 1013.94 1013.65
1021.62 1021.66 1021.72 1021.79 1021.88 1021.94 1021.98 1021.97 1021.92 1021.82 1021.69 1021.54 1021.39 1021.23 1021.08 1020.93 1020.79 1020.64 1020.47 1020.29 1020.11 1019.94 1019.79 1019.66 1019.55 1019.45 1019.35 1019.22 1019.05 1018.80 1018.48 1018.09 1017.64 1017.15 1016.65 1016.16 1015.70 1015.29 1014.92 1014.58 1014.26 1013.96 1013.67
1021.63 1021.70 1021.80 1021.92 1022.03 1022.12 1022.17 1022.18 1022.13 1022.04 1021.93 1021.80 1021.67 1021.55 1021.42 1021.29 1021.14 1020.96 1020.76 1020.54 1020.31 1020.09 1019.91 1019.76 1019.66 1019.58 1019.51 1019.41 1019.26 1019.04 1018.72 1018.32 1017.85 1017.33 1016.79 1016.27 1015.78 1015.35 1014.96 1014.60 1014.28 1013.97 1013.67
1021.59 1021.68 1021.82 1021.97 1022.10 1022.22 1022.28 1022.29 1022.26 1022.19 1022.11 1022.02 1021.93 1021.85 1021.77 1021.66 1021.52 1021.33 1021.09 1020.82 1020.53 1020.26 1020.03 1019.84 1019.72 1019.64 1019.58 1019.51 1019.38 1019.18 1018.88 1018.49 1018.01 1017.48 1016.92 1016.39 1015.88 1015.43 1015.02 1014.66 1014.33 1014.02 1013.70
1021.52 1021.64 1021.80 1021.97 1022.12 1022.24 1022.31 1022.33 1022.31 1022.27 1022.21 1022.17 1022.14 1022.12 1022.09 1022.02 1021.90 1021.71 1021.45 1021.13 1020.79 1020.45 1020.15 1019.91 1019.75 1019.65 1019.58 1019.51 1019.40 1019.22 1018.95 1018.57 1018.11 1017.59 1017.04 1016.51 1016.01 1015.55 1015.14 1014.78 1014.44 1014.11 1013.78
1021.49 1021.62 1021.78 1021.96 1022.11 1022.22 1022.29 1022.31 1022.30 1022.27 1022.25 1022.25 1022.28 1022.31 1022.34 1022.32 1022.23 1022.04 1021.77 1021.42 1021.03 1020.64 1020.27 1019.97 1019.76 1019.61 1019.52 1019.45 1019.34 1019.17 1018.92 1018.58 1018.15 1017.66 1017.15 1016.64 1016.16 1015.72 1015.33 1014.97 1014.63 1014.30 1013.95
1021.54 1021.66 1021.81 1021.97 1022.10 1022.20 1022.24 1022.25 1022.23 1022.21 1022.21 1022.25 1022.32 1022.40 1022.47 1022.50 1022.44 1022.28 1022.01 1021.65 1021.22 1020.78 1020.36 1020.01 1019.74 1019.55 1019.42 1019.33 1019.22 1019.06 1018.83 1018.51 1018.12 1017.68 1017.21 1016.75 1016.31 1015.91 1015.55 1015.21 1014.88 1014.55 1014.19
1021.66 1021.77 1021.90 1022.02 1022.12 1022.18 1022.19 1022.17 1022.13 1022.10 1022.10 1022.15 1022.24 1022.35 1022.46 1022.52 1022.49 1022.35 1022.09 1021.74 1021.31 1020.84 1020.40 1020.01 1019.70 1019.47 1019.31 1019.18 1019.05 1018.89 1018.67 1018.39 1018.04 1017.65 1017.24 1016.83 1016.44 1016.09 1015.76 1015.46 1015.15 1014.83 1014.48
1021.86 1021.94 1022.03 1022.11 1022.16 1022.17 1022.14 1022.07 1021.99 1021.93 1021.91 1021.95 1022.03 1022.15 1022.26 1022.34 1022.34 1022.23 1022.00 1021.67 1021.26 1020.82 1020.37 1019.97 1019.64 1019.38 1019.18 1019.03 1018.88 1018.71 1018.49 1018.22 1017.91 1017.55 1017.19 1016.84 1016.51 1016.20 1015.92 1015.65 1015.38 1015.08 1014.75
1022.08 1022.13 1022.17 1022.21 1022.21 1022.16 1022.08 1021.96 1021.84 1021.73 1021.66 1021.66 1021.71 1021.80 1021.90 1021.98 1021.99 1021.91 1021.73 1021.45 1021.09 1020.68 1020.28 1019.90 1019.57 1019.30 1019.08 1018.89 1018.72 1018.52 1018.29 1018.02 1017.72 1017.40 1017.07 1016.76 1016.47 1016.21 1015.97 1015.75 1015.51 1015.25 1014.96
1022.26 1022.28 1022.29 1022.27 1022.22 1022.12 1021.99 1021.83 1021.65 1021.49 1021.38 1021.32 1021.31 1021.36 1021.43 1021.49 1021.51 1021.46 1021.33 1021.11 1020.82 1020.49 1020.14 1019.80 1019.50 1019.23 1019.00 1018.79 1018.58 1018.35 1018.10 1017.81 1017.50 1017.18 1016.88 1016.59 1016.33 1016.10 1015.90 1015.71 1015.52 1015.30 1015.06
1022.36 1022.35 1022.32 1022.27 1022.18 1022.04 1021.87 1021.66 1021.45 1021.24 1021.07 1020.95 1020.90 1020.89 1020.91 1020.95 1020.97 1020.95 1020.86 1020.72 1020.51 1020.26 1019.99 1019.71 1019.45 1019.20 1018.96 1018.72 1018.48 1018.21 1017.92 1017.60 1017.27 1016.94 1016.63 1016.34 1016.09 1015.89 1015.71 1015.55 1015.39 1015.22 1015.03
1022.35 1022.32 1022.26 1022.18 1022.06 1021.91 1021.71 1021.48 1021.24 1021.00 1020.78 1020.62 1020.51 1020.45 1020.43 1020.45 1020.46 1020.46 1020.42 1020.34 1020.21 1020.04 1019.84 1019.63 1019.41 1019.18 1018.94 1018.68 1018.41 1018.10 1017.77 1017.41 1017.05 1016.70 1016.36 1016.07 1015.81 1015.60 1015.43 1015.29 1015.16 1015.03 1014.90
1022.24 1022.19 1022.11 1022.01 1021.88 1021.72 1021.52 1021.28 1021.03 1020.78 1020.54 1020.34 1020.19 1020.09 1020.04 1020.03 1020.04 1020.05 1020.05 1020.02 1019.95 1019.85 1019.72 1019.56 1019.37 1019.16 1018.92 1018.65 1018.34 1018.00 1017.64 1017.25 1016.86 1016.48 1016.13 1015.81 1015.54 1015.32 1015.15 1015.00 1014.89 1014.79 1014.69
1022.06 1021.99 1021.90 1021.79 1021.66 1021.49 1021.29 1021.07 1020.83 1020.58 1020.34 1020.12 1019.96 1019.84 1019.77 1019.74 1019.74 1019.76 1019.77 1019.77 1019.74 1019.69 1019.60 1019.47 1019.30 1019.10 1018.86 1018.58 1018.26 1017.90 1017.52 1017.12 1016.72 1016.32 1015.96 1015.63 1015.34 1015.10 1014.91 1014.75 1014.63 1014.54 1014.47
1021.84 1021.76 1021.66 1021.54 1021.41 1021.25 1021.06 1020.85 1020.62 1020.39 1020.16 1019.96 1019.79 1019.66 1019.58 1019.54 1019.53 1019.55 1019.57 1019.58 1019.56 1019.52 1019.44 1019.33 1019.17 1018.97 1018.72 1018.44 1018.12 1017.77 1017.39 1017.01 1016.61 1016.23 1015.87 1015.53 1015.23 1014.97 1014.76 1014.58 1014.44 1014.34 1014.26
1021.61 1021.53 1021.42 1021.30 1021.16 1021.00 1020.82 1020.62 1020.41 1020.19 1019.98 1019.79 1019.64 1019.52 1019.43 1019.39 1019.38 1019.38 1019.39 1019.39 1019.36 1019.31 1019.22 1019.10 1018.93 1018.72 1018.48 1018.20 1017.90 1017.58 1017.24 1016.89 1016.54 1016.19 1015.85 1015.53 1015.24 1014.97 1014.72 1014.51 1014.34 1014.21 1014.10
1021.41 1021.32 1021.20 1021.07 1020.91 1020.74 1020.56 1020.36 1020.16 1019.96 1019.77 1019.59 1019.45 1019.34 1019.27 1019.23 1019.21 1019.20 1019.18 1019.16 1019.11 1019.03 1018.91 1018.76 1018.58 1018.36 1018.12 1017.87 1017.60 1017.33 1017.04 1016.76 1016.47 1016.18 1015.90 1015.61 1015.33 1015.05 1014.79 1014.54 1014.33 1014.15 1014.01
1021.22 1021.12 1021.00 1020.85 1020.67 1020.48 1020.28 1020.07 1019.86 1019.66 1019.48 1019.32 1019.20 1019.10 1019.03 1018.99 1018.97 1018.94 1018.91 1018.85 1018.77 1018.66 1018.51 1018.33 1018.12 1017.91 1017.68 1017.45 1017.23 1017.01 1016.80 1016.60 1016.39 1016.18 1015.95 1015.72 1015.46 1015.19 1014.92 1014.65 1014.39 1014.16 1013.97
1021.03 1020.93 1020.79 1020.62 1020.42 1020.20 1019.97 1019.73 1019.51 1019.30 1019.11 1018.96 1018.84 1018.76 1018.70 1018.66 1018.63 1018.59 1018.54 1018.46 1018.35 1018.20 1018.02 1017.82 1017.61 1017.39 1017.18 1016.98 1016.81 1016.66 1016.52 1016.40 1016.28 1016.14 1015.98 1015.80 1015.59 1015.34 1015.06 1014.78 1014.49 1014.23 1013.99
1020.82 1020.72 1020.57 1020.37 1020.14 1019.89 1019.62 1019.35 1019.10 1018.87 1018.68 1018.53 1018.41 1018.33 1018.28 1018.24 1018.21 1018.16 1018.09 1018.00 1017.87 1017.70 1017.51 1017.29 1017.08 1016.87 1016.68 1016.52 1016.39 1016.29 1016.22 1016.17 1016.11 1016.05 1015.96 1015.83 1015.65 1015.43 1015.18 1014.89 1014.60 1014.31 1014.04
1020.57 1020.46 1020.30 1020.09 1019.83 1019.54 1019.24 1018.94 1018.66 1018.41 1018.21 1018.04 1017.92 1017.84 1017.79 1017.75 1017.72 1017.67 1017.60 1017.50 1017.36 1017.19 1017.00 1016.79 1016.58 1016.39 1016.22 1016.09 1015.99 1015.94 1015.91 1015.91 1015.91 1015.89 1015.85 1015.76 1015.63 1015.45 1015.22 1014.96 1014.68 1014.39 1014.12
Thickness
5660 5660 5661 5662 5663 5664 5664 5664 5664 5664 5664 5664 5664 5664 5663 5663 5662 5662 5661 5660 5660 5660 5660 5659 5658 5656 5655 5654 5653 5652 5651 5649 5648 5647 5647 5646 5645 5645 5645 5644 5644 5644 5643
5654 5654 5655 5655 5656 5657 5657 5657 5657 5657 5656 5657 5657 5657 5657 5657 5656 5655 5654 5654 5653 5653 5652 5652 5651 5650 5649 5648 5647 5646 5645 5644 5642 5641 5640 5640 5639 5639 5638 5638 5638 5637 5637
5648 5648 5649 5649 5649 5650 5651 5651 5650 5650 5650 5650 5649 5649 5649 5649 5649 5648 5647 5647 5646 5645 5644 5644 5643 5643 5642 5641 5641 5639 5638 5637 5636 5635 5634 5633 5632 5632 5632 5632 5631 5631 5630
5641 5642 5643 5643 5643 5643 5644 5644 5643 5642 5642 5641 5641 5642 5642 5642 5642 5641 5640 5639 5638 5637 5636 5636 5635 5634 5634 5634 5633 5632 5631 5630 5629 5628 5627 5626 5625 5625 5625 5625 5624 5624 5623
5634 5636 5636 5636 5637 5637 5637 5637 5635 5635 5634 5633 5634 5634 5634 5634 5634 5633 5632 5631 5630 5629 5629 5628 5627 5626 5625 5625 5625 5624 5623 5622 5621 5621 5619 5619 5618 5618 5617 5617 5617 5617 5616
5627 5629 5629 5630 5630 5630 5630 5629 5628 5627 5626 5626 5627 5626 5625 5625 5625 5625 5624 5623 5622 5621 5620 5620 5619 5617 5617 5616 5616 5615 5615 5614 5613 5613 5612 5611 5611 5610 5610 5610 5609 5609 5609
5620 5621 5622 5623 5623 5623 5622 5622 5621 5619 5618 5618 5617 5616 5616 5616 5616 5615 5615 5614 5613 5612 5612 5611 5610 5609 5608 5607 5607 5606 5606 5606 5605 5604 5604 5603 5603 5603 5603 5602 5602 5601 5601
5613 5614 5614 5615 5615 5615 5614 5614 5613 5611 5609 5609 5608 5607 5606 5606 5606 5607 5606 5605 5604 5604 5603 5602 5601 5600 5600 5599 5598 5597 5597 5596 5596 5596 5596 5595 5595 5595 5595 5594 5594 5593 5593
5605 5606 5606 5607 5608 5608 5607 5606 5606 5604 5601 5600 5600 5600 5598 5597 5595 5596 5596 5596 5596 5595 5594 5593 5592 5592 5591 5590 5589 5588 5588 5587 5587 5587 5587 5587 5587 5587 5586 5586 5585 5585 5584
5597 5598 5599 5600 5600 5600 5599 5599 5598 5596 5595 5592 5591 5591 5590 5590 5587 5586 5586 5586 5586 5586 5585 5584 5583 5583 5582 5581 5580 5579 5579 5578 5578 5578 5578 5578 5578 5578 5577 5576 5576 5575 5575
5589 5590 5591 5592 5592 5592 5591 5590 5590 5588 5587 5585 5583 5582 5580 5578 5578 5577 5576 5575 5575 5576 5576 5575 5575 5574 5573 5572 5571 5570 5569 5569 5569 5569 5569 5569 5568 5568 5567 5566 5566 5565 5565
5580 5581 5583 5583 5583 5583 5582 5582 5581 5580 5579 5577 5575 5573 5572 5571 5568 5566 5565 5564 5564 5566 5566 5566 5566 5564 5564 5563 5562 5561 5560 5559 5559 5559 5559 5559 5558 5557 5556 5556 5556 5555 5554
5571 5573 5574 5575 5575 5575 5574 5573 5573 5571 5570 5569 5567 5565 5564 5563 5561 5558 5556 5554 5553 5555 5556 5557 5556 5555 5554 5553 5552 5552 5550 5550 5549 5549 5549 5548 5547 5546 5545 5545 5545 5544 5543
5564 5565 5566 5566 5566 5566 5566 5565 5563 5562 5561 5559 5558 5556 5554 5553 5551 5550 5547 5544 5544 5544 5545 5546 5546 5545 5544 5543 5542 5541 5540 5539 5539 5538 5538 5538 5537 5536 5535 5534 5534 5533 5533
5556 5557 5557 5557 5557 5557 5556 5555 5554 5553 5551 5550 5548 5546 5545 5544 5542 5540 5539 5537 5534 5534 5536 5536 5535 5535 5534 5533 5532 5531 5530 5530 5529 5528 5528 5527 5527 5525 5525 5524 5523 5522 5522
5549 5549 5548 5548 5548 5548 5547 5546 5545 5544 5542 5541 5539 5537 5535 5534 5532 5531 5529 5527 5525 5523 5524 5526 5524 5524 5523 5523 5522 5521 5520 5519 5518 5518 5517 5517 5516 5515 5514 5514 5513 5512 5512
5540 5540 5540 5539 5539 5539 5538 5537 5535 5534 5533 5531 5530 5529 5527 5525 5523 5521 5519 5517 5515 5512 5513 5515 5513 5512 5511 5511 5511 5510 5509 5509 5508 5507 5507 5506 5506 5505 5504 5504 5503 5502 5501
5532 5531 5531 5530 5529 5529 5528 5527 5525 5525 5523 5522 5521 5519 5518 5517 5514 5512 5510 5507 5505 5503 5502 5503 5502 5500 5500 5500 5499 5498 5498 5498 5497 5496 5496 5496 5496 5495 5494 5493 5492 5491 5490
5522 5522 5521 5520 5520 5519 5518 5517 5516 5515 5513 5512 5511 5509 5509 5507 5504 5502 5500 5497 5495 5493 5491 5490 5490 5489 5488 5487 5487 5486 5486 5486 5486 5486 5485 5485 5485 5484 5483 5482 5481 5480 5479
5513 5512 5511 5510 5509 5509 5508 5507 5506 5505 5503 5502 5501 5499 5498 5496 5495 5493 5490 5488 5485 5482 5479 5478 5478 5477 5475 5474 5473 5472 5473 5473 5474 5474 5474 5473 5472 5472 5471 5471 5470 5469 5468
5502 5501 5500 5500 5498 5497 5497 5496 5495 5494 5493 5491 5490 5488 5487 5486 5485 5483 5481 5478 5474 5471 5468 5466 5466 5464 5463 5460 5459 5459 5459 5460 5462 5461 5461 5461 5460 5460 5459 5459 5458 5457 5456
5492 5490 5489 5488 5487 5487 5487 5486 5485 5483 5482 5480 5478 5477 5476 5474 5473 5472 5470 5468 5464 5461 5458 5455 5453 5452 5452 5449 5447 5446 5445 5445 5448 5448 5446 5448 5447 5447 5448 5447 5447 5446 5445
5481 5479 5478 5476 5475 5475 5474 5474 5474 5471 5469 5467 5466 5465 5464 5463 5461 5459 5458 5456 5453 5451 5449 5445 5443 5441 5439 5437 5434 5433 5432 5431 5432 5433 5430 5435 5434 5434 5435 5435 5435 5434 5433
5470 5469 5467 5466 5464 5463 5463 5462 5461 5459 5457 5456 5454 5452 5451 5450 5448 5446 5444 5442 5440 5438 5436 5434 5432 5431 5428 5425 5422 5421 5419 5419 5420 5418 5415 5418 5421 5420 5422 5422 5422 5421 5419
5459 5457 5456 5454 5453 5452 5451 5450 5449 5447 5446 5444 5443 5441 5439 5438 5437 5436 5433 5430 5428 5426 5424 5422 5420 5418 5416 5413 5410 5407 5405 5404 5407 5408 5403 5402 5405 5405 5408 5410 5409 5408 5406
5447 5445 5443 5442 5440 5439 5439 5438 5437 5434 5433 5431 5430 5429 5428 5427 5426 5424 5420 5418 5416 5414 5411 5410 5408 5406 5404 5401 5399 5396 5394 5391 5391 5394 5393 5388 5389 5387 5392 5397 5395 5393 5391